timestamp,wind_dir_avg,wind_spd_avg,wind_spd_max_dir,wind_spd_gust,battery_voltage,lat,long
2024-04-11 00:04:00+00:00,359.0,5.6,2.0,6.59,12.33,47.59359,-54.27349
2024-04-11 00:14:01+00:00,357.0,5.36,348.0,6.24,12.17,47.59359,-54.27349
2024-04-11 00:24:01+00:00,359.0,5.62,10.0,6.2,12.17,47.59359,-54.27349
2024-04-11 00:34:01+00:00,7.0,5.93,9.0,6.73,12.17,47.59359,-54.27349
2024-04-11 00:44:01+00:00,348.0,7.28,344.0,9.14,12.17,47.59359,-54.27349
2024-04-11 00:54:01+00:00,351.0,8.01,350.0,8.93,12.17,47.59359,-54.27349
2024-04-11 01:04:01+00:00,348.0,7.23,345.0,8.11,12.17,47.59359,-54.27349
2024-04-11 01:14:00+00:00,335.0,7.55,340.0,8.57,12.17,47.59359,-54.27349
2024-04-11 01:24:00+00:00,343.0,7.07,346.0,8.32,12.17,47.59359,-54.27349
2024-04-11 01:34:00+00:00,329.0,5.97,332.0,6.56,12.17,47.59359,-54.27349
2024-04-11 01:44:00+00:00,330.0,6.65,326.0,7.59,12.17,47.59359,-54.27349
2024-04-11 01:54:00+00:00,336.0,6.01,337.0,6.79,12.17,47.59359,-54.27349
2024-04-11 02:04:00+00:00,346.0,7.66,346.0,9.1,12.17,47.59359,-54.27349
2024-04-11 02:14:00+00:00,340.0,8.31,340.0,9.83,12.17,47.59359,-54.27349
2024-04-11 02:24:00+00:00,348.0,7.42,348.0,8.75,12.17,47.59359,-54.27349
2024-04-11 02:34:00+00:00,343.0,6.86,346.0,7.88,12.17,47.59359,-54.27349
2024-04-11 02:44:00+00:00,340.0,6.7,339.0,7.36,12.17,47.59359,-54.27349
2024-04-11 02:54:00+00:00,350.0,7.01,352.0,8.36,12.17,47.59359,-54.27349
2024-04-11 03:04:00+00:00,350.0,7.02,352.0,8.08,12.17,47.59359,-54.27349
2024-04-11 03:14:00+00:00,359.0,7.46,359.0,8.19,12.17,47.59359,-54.27349
2024-04-11 03:24:00+00:00,10.0,8.46,5.0,10.06,12.17,47.59359,-54.27349
2024-04-11 03:34:00+00:00,10.0,7.06,1.0,8.9,12.17,47.59359,-54.27349
2024-04-11 03:44:00+00:00,10.0,7.63,4.0,9.07,12.17,47.59359,-54.27349
2024-04-11 03:54:00+00:00,11.0,7.0,10.0,8.61,12.17,47.59359,-54.27349
2024-04-11 04:04:00+00:00,6.0,7.03,359.0,7.98,12.17,47.59359,-54.27349
2024-04-11 04:14:00+00:00,5.0,7.85,5.0,8.79,12.09,47.59359,-54.27349
2024-04-11 04:24:00+00:00,10.0,7.93,8.0,9.64,12.09,47.59359,-54.27349
2024-04-11 04:34:00+00:00,11.0,7.92,17.0,9.55,12.09,47.59359,-54.27349
2024-04-11 04:44:00+00:00,14.0,9.09,15.0,10.23,12.09,47.59359,-54.27349
2024-04-11 04:54:00+00:00,15.0,9.69,16.0,11.82,12.09,47.59359,-54.27349
2024-04-11 05:04:00+00:00,18.0,9.25,17.0,10.25,12.09,47.59359,-54.27349
2024-04-11 05:14:00+00:00,21.0,8.19,18.0,10.1,12.09,47.59359,-54.27349
2024-04-11 05:24:00+00:00,20.0,9.74,23.0,11.35,12.09,47.59359,-54.27349
2024-04-11 05:34:00+00:00,18.0,8.7,20.0,9.82,12.09,47.59359,-54.27349
2024-04-11 05:44:00+00:00,10.0,8.41,16.0,10.33,12.09,47.59359,-54.27349
2024-04-11 05:54:00+00:00,13.0,9.26,15.0,10.85,12.09,47.59359,-54.27349
2024-04-11 06:04:00+00:00,16.0,8.37,17.0,9.82,12.09,47.59359,-54.27349
2024-04-11 06:14:00+00:00,18.0,9.43,17.0,11.04,12.09,47.59359,-54.27349
2024-04-11 06:24:00+00:00,14.0,7.8,17.0,9.21,12.09,47.59359,-54.27349
2024-04-11 06:34:00+00:00,17.0,6.8,17.0,7.93,12.09,47.59359,-54.27349
2024-04-11 06:44:00+00:00,15.0,7.09,19.0,8.59,12.09,47.59359,-54.27349
2024-04-11 06:54:00+00:00,9.0,6.48,2.0,7.4,12.09,47.59359,-54.27349
2024-04-11 07:04:00+00:00,4.0,8.26,5.0,9.56,12.09,47.59359,-54.27349
2024-04-11 07:14:00+00:00,8.0,8.58,5.0,9.86,12.09,47.59359,-54.27349
2024-04-11 07:24:00+00:00,9.0,7.51,5.0,9.03,12.09,47.59359,-54.27349
2024-04-11 07:34:00+00:00,14.0,7.01,16.0,8.64,12.09,47.59359,-54.27349
2024-04-11 07:44:00+00:00,7.0,6.57,9.0,7.79,12.09,47.59359,-54.27349
2024-04-11 07:54:00+00:00,7.0,6.8,5.0,7.64,12.09,47.59359,-54.27349
2024-04-11 08:04:00+00:00,6.0,6.62,0.0,7.89,12.09,47.59359,-54.27349
2024-04-11 08:14:00+00:00,13.0,7.13,13.0,9.54,12.01,47.59359,-54.27349
2024-04-11 08:24:00+00:00,7.0,6.77,7.0,8.12,12.01,47.59359,-54.27349
2024-04-11 08:34:00+00:00,4.0,7.47,4.0,8.38,12.01,47.59359,-54.27349
2024-04-11 08:44:00+00:00,9.0,6.52,6.0,8.08,12.01,47.59359,-54.27349
2024-04-11 08:54:00+00:00,8.0,7.12,12.0,8.65,12.01,47.59359,-54.27349
2024-04-11 09:04:00+00:00,6.0,8.48,7.0,9.53,12.01,47.59359,-54.27349
2024-04-11 09:14:00+00:00,5.0,7.77,8.0,8.47,11.93,47.59359,-54.27349
2024-04-11 09:24:00+00:00,11.0,6.26,11.0,7.42,11.93,47.59359,-54.27349
2024-04-11 09:34:00+00:00,12.0,5.53,15.0,6.41,11.93,47.59359,-54.27349
2024-04-11 09:44:00+00:00,8.0,4.76,19.0,6.23,11.93,47.59359,-54.27349
2024-04-11 09:54:00+00:00,357.0,6.06,353.0,6.59,11.93,47.59359,-54.27349
2024-04-11 10:04:00+00:00,7.0,7.03,4.0,8.1,11.93,47.59359,-54.27349
2024-04-11 10:14:00+00:00,359.0,7.08,0.0,8.12,13.05,47.59359,-54.27349
2024-04-11 10:24:00+00:00,5.0,7.5,6.0,8.1,13.05,47.59359,-54.27349
2024-04-11 10:34:00+00:00,11.0,6.66,16.0,7.58,13.05,47.59359,-54.27349
2024-04-11 10:44:00+00:00,18.0,6.93,19.0,7.86,13.05,47.59359,-54.27349
2024-04-11 10:54:00+00:00,19.0,7.1,19.0,8.09,13.05,47.59359,-54.27349
2024-04-11 11:04:00+00:00,20.0,6.73,18.0,8.1,13.05,47.59359,-54.27349
2024-04-11 11:14:00+00:00,19.0,6.32,17.0,7.24,13.84,47.59359,-54.27349
2024-04-11 11:24:00+00:00,22.0,6.39,18.0,7.71,13.84,47.59359,-54.27349
2024-04-11 11:34:00+00:00,25.0,6.22,29.0,6.84,13.84,47.59359,-54.27349
2024-04-11 11:44:00+00:00,27.0,5.84,27.0,6.37,13.84,47.59359,-54.27349
2024-04-11 11:54:00+00:00,37.0,5.55,33.0,6.24,13.84,47.59359,-54.27349
2024-04-11 12:04:00+00:00,21.0,5.0,23.0,5.92,13.84,47.59359,-54.27349
2024-04-11 12:14:00+00:00,28.0,4.37,25.0,5.14,14.32,47.59359,-54.27349
2024-04-11 12:24:00+00:00,41.0,4.16,43.0,4.52,14.32,47.59359,-54.27349
2024-04-11 12:34:00+00:00,43.0,3.81,44.0,4.18,14.32,47.59359,-54.27349
2024-04-11 12:44:00+00:00,52.0,3.57,51.0,4.1,14.32,47.59359,-54.27349
2024-04-11 12:54:00+00:00,59.0,4.11,56.0,4.54,14.32,47.59359,-54.27349
2024-04-11 13:04:00+00:00,65.0,3.19,64.0,3.71,14.32,47.59359,-54.27349
2024-04-11 13:14:00+00:00,72.0,3.89,67.0,4.27,13.76,47.59359,-54.27349
2024-04-11 13:24:00+00:00,73.0,3.37,88.0,4.23,13.76,47.59359,-54.27349
2024-04-11 13:34:00+00:00,85.0,2.6,80.0,4.0,13.76,47.59359,-54.27349
2024-04-11 13:44:00+00:00,80.0,3.17,79.0,4.55,13.76,47.59359,-54.27349
2024-04-11 13:54:00+00:00,81.0,3.22,58.0,4.61,13.76,47.59359,-54.27349
2024-04-11 14:04:00+00:00,76.0,2.92,87.0,4.14,13.76,47.59359,-54.27349
2024-04-11 14:14:00+00:00,99.0,2.2,81.0,3.19,14.48,47.59359,-54.27349
2024-04-11 14:24:00+00:00,83.0,2.16,90.0,3.12,14.48,47.59359,-54.27349
2024-04-11 14:34:00+00:00,87.0,2.07,65.0,2.87,14.48,47.59359,-54.27349
2024-04-11 14:44:00+00:00,90.0,1.93,81.0,2.65,14.48,47.59359,-54.27349
2024-04-11 14:54:00+00:00,118.0,2.45,121.0,3.01,14.48,47.59359,-54.27349
2024-04-11 15:04:00+00:00,115.0,1.32,116.0,1.73,14.48,47.59359,-54.27349
2024-04-11 15:14:00+00:00,131.0,1.24,123.0,1.52,14.16,47.59359,-54.27349
2024-04-11 15:24:00+00:00,211.0,1.3,217.0,1.51,14.16,47.59359,-54.27349
2024-04-11 15:34:00+00:00,233.0,1.63,230.0,1.85,14.16,47.59359,-54.27349
2024-04-11 15:44:00+00:00,238.0,3.16,237.0,3.52,14.16,47.59359,-54.27349
2024-04-11 15:54:00+00:00,224.0,3.25,225.0,3.55,14.16,47.59359,-54.27349
2024-04-11 16:04:00+00:00,218.0,4.28,218.0,4.59,14.16,47.59359,-54.27349
2024-04-11 16:14:01+00:00,210.0,3.49,211.0,3.63,14.48,47.59359,-54.27349
2024-04-11 16:24:01+00:00,213.0,3.24,214.0,3.36,14.48,47.59359,-54.27349
2024-04-11 16:34:01+00:00,212.0,6.13,212.0,6.63,14.48,47.59359,-54.27349
2024-04-11 16:44:01+00:00,216.0,7.05,215.0,7.44,14.48,47.59359,-54.27349
2024-04-11 16:54:01+00:00,216.0,7.87,216.0,8.84,14.48,47.59359,-54.27349
2024-04-11 17:04:01+00:00,217.0,7.81,217.0,9.07,14.48,47.59359,-54.27349
2024-04-11 17:14:01+00:00,218.0,7.07,219.0,7.74,14.32,47.59359,-54.27349
2024-04-11 17:24:01+00:00,215.0,6.99,213.0,7.68,14.32,47.59359,-54.27349
2024-04-11 17:34:01+00:00,217.0,7.13,216.0,7.86,14.32,47.59359,-54.27349
2024-04-11 17:44:01+00:00,215.0,6.32,218.0,7.19,14.32,47.59359,-54.27349
2024-04-11 17:54:01+00:00,216.0,6.25,216.0,6.86,14.32,47.59359,-54.27349
2024-04-11 18:04:01+00:00,213.0,7.3,218.0,8.31,14.32,47.59359,-54.27349
2024-04-11 18:14:00+00:00,219.0,8.2,224.0,9.68,14.32,47.59359,-54.27349
2024-04-11 18:24:00+00:00,213.0,8.51,215.0,9.7,14.32,47.59359,-54.27349
2024-04-11 18:34:00+00:00,209.0,8.75,203.0,11.2,14.32,47.59359,-54.27349
2024-04-11 18:44:00+00:00,208.0,9.53,213.0,10.85,14.32,47.59359,-54.27349
2024-04-11 18:54:00+00:00,208.0,8.48,208.0,10.15,14.32,47.59359,-54.27349
2024-04-11 19:04:00+00:00,207.0,8.69,208.0,9.77,14.32,47.59359,-54.27349
2024-04-11 19:14:00+00:00,209.0,9.35,213.0,10.49,13.68,47.59359,-54.27349
2024-04-11 19:24:00+00:00,208.0,8.63,208.0,10.3,13.68,47.59359,-54.27349
2024-04-11 19:34:00+00:00,209.0,9.44,212.0,10.88,13.68,47.59359,-54.27349
2024-04-11 19:44:00+00:00,215.0,9.96,221.0,11.88,13.68,47.59359,-54.27349
2024-04-11 19:54:00+00:00,213.0,10.88,212.0,12.22,13.68,47.59359,-54.27349
2024-04-11 20:04:00+00:00,215.0,11.29,216.0,12.73,13.68,47.59359,-54.27349
2024-04-11 20:14:00+00:00,218.0,11.86,224.0,13.6,13.68,47.59359,-54.27349
2024-04-11 20:24:00+00:00,219.0,11.04,215.0,12.48,13.68,47.59359,-54.27349
2024-04-11 20:34:00+00:00,221.0,11.71,226.0,13.15,13.68,47.59359,-54.27349
2024-04-11 20:44:00+00:00,221.0,11.28,224.0,12.82,13.68,47.59359,-54.27349
2024-04-11 20:54:00+00:00,214.0,10.54,215.0,12.54,13.68,47.59359,-54.27349
2024-04-11 21:04:00+00:00,215.0,10.42,223.0,12.94,13.68,47.59359,-54.27349
2024-04-11 21:14:00+00:00,217.0,8.22,231.0,10.71,13.37,47.59359,-54.27349
2024-04-11 21:24:00+00:00,222.0,8.28,230.0,10.58,13.37,47.59359,-54.27349
2024-04-11 21:34:00+00:00,214.0,8.11,219.0,10.33,13.37,47.59359,-54.27349
2024-04-11 21:44:00+00:00,220.0,9.24,230.0,11.54,13.37,47.59359,-54.27349
2024-04-11 21:54:00+00:00,218.0,9.38,228.0,11.49,13.37,47.59359,-54.27349
2024-04-11 22:04:00+00:00,205.0,9.01,207.0,10.1,13.37,47.59359,-54.27349
2024-04-11 22:14:01+00:00,212.0,8.83,208.0,11.66,13.05,47.59359,-54.27349
2024-04-11 22:24:01+00:00,222.0,6.88,237.0,9.1,13.05,47.59359,-54.27349
2024-04-11 22:34:01+00:00,217.0,6.73,224.0,8.53,13.05,47.59359,-54.27349
2024-04-11 22:44:01+00:00,215.0,7.37,229.0,9.23,13.05,47.59359,-54.27349
2024-04-11 22:54:01+00:00,211.0,5.9,210.0,6.89,13.05,47.59359,-54.27349
2024-04-11 23:04:01+00:00,207.0,6.44,204.0,7.39,13.05,47.59359,-54.27349
2024-04-11 23:14:00+00:00,215.0,5.39,213.0,6.06,12.41,47.59359,-54.27349
2024-04-11 23:24:00+00:00,219.0,4.73,219.0,5.19,12.41,47.59359,-54.27349
2024-04-11 23:34:00+00:00,235.0,4.92,254.0,8.37,12.41,47.59359,-54.27349
2024-04-11 23:44:00+00:00,230.0,6.7,244.0,10.15,12.41,47.59359,-54.27349
2024-04-11 23:54:00+00:00,243.0,4.91,247.0,6.39,12.41,47.59359,-54.27349
